Weather History for State College, PA

Change the Weather History Date:

Sunday, December 8, 2013

  Actual Average Record
Temperature  
Mean Temperature 20 °F -  
Max Temperature 25 °F 39 °F 61 °F (1951)
Min Temperature 15 °F 26 °F 7 °F (1936)
Degree Days  
Heating Degree Days 45    
Moisture  
Dew Point 17 °F    
Average Humidity 85    
Maximum Humidity 98    
Minimum Humidity 71    
Precipitation  
Precipitation 0.00 in - - ()
Sea Level Pressure  
Sea Level Pressure 30.43 in    
Wind  
Wind Speed 2 mph (East)    
Max Wind Speed 6 mph    
Max Gust Speed -    
Visibility 6 miles    
Events Snow    
Averages and records for this station are not official NWS values.
T = Trace of Precipitation, MM = Missing Value Source: NWS Daily Summary

Daily Weather History Graph

Daily Weather History Graph

Search for Another Location

Airport:

Trip Planner

Search our weather history database for the weather conditions in past years. The results will help you decide how hot, cold, wet, or windy it might be!

Date:

Astronomy

Dec. 08, 2013 Rise Set
Actual Time 7:23 AM EST 4:43 PM EST
Civil Twilight 6:52 AM EST 5:14 PM EST
Nautical Twilight 6:18 AM EST 5:48 PM EST
Astronomical Twilight 5:44 AM EST 6:21 PM EST
Moon 11:40 AM EST (12/8) 11:32 PM EST (12/8)
Length of Visible Light 10h 21m
Length of Day
9h 20m
Waxing Crescent, 40% of the Moon is Illuminated
Dec 8
Waxing Crescent
Dec 9
First Quarter
Dec 17
Full
Dec 25
Last Quarter
Jan 1
New

Hourly Weather History & Observations

Time (EST) Temp. Windchill Dew Point Humidity Pressure Visibility Wind Dir Wind Speed Gust Speed Precip Events Conditions
12:15 AM 20.3 °F 13.8 °F 12.9 °F 73% 30.52 in 10.0 mi NW 4.6 mph - N/A   Clear
12:35 AM 19.8 °F 13.2 °F 12.7 °F 74% 30.52 in 10.0 mi WNW 4.6 mph - N/A   Clear
12:55 AM 20.1 °F 15.2 °F 12.2 °F 71% 30.52 in 10.0 mi NW 3.5 mph - N/A   Clear
1:15 AM 19.9 °F 14.9 °F 12.0 °F 71% 30.53 in 10.0 mi NW 3.5 mph - N/A   Clear
1:35 AM 19.6 °F - 12.2 °F 73% 30.52 in 10.0 mi Calm Calm - N/A   Clear
1:55 AM 19.9 °F 14.9 °F 11.8 °F 71% 30.52 in 10.0 mi WNW 3.5 mph - N/A   Clear
2:15 AM 19.6 °F - 11.8 °F 72% 30.52 in 10.0 mi Calm Calm - N/A   Clear
2:35 AM 15.8 °F - 12.4 °F 86% 30.53 in 10.0 mi Calm Calm - N/A   Clear
2:55 AM 17.4 °F - 12.7 °F 82% 30.53 in 10.0 mi Calm Calm - N/A   Clear
3:15 AM 18.1 °F - 12.7 °F 79% 30.52 in 10.0 mi Calm Calm - N/A   Clear
3:35 AM 16.7 °F - 12.9 °F 85% 30.52 in 10.0 mi Calm Calm - N/A   Clear
3:55 AM 17.2 °F - 12.9 °F 83% 30.50 in 10.0 mi Calm Calm - N/A   Clear
4:15 AM 16.3 °F - 11.7 °F 82% 30.52 in 10.0 mi Calm Calm - N/A   Scattered Clouds
4:35 AM 15.8 °F - 12.4 °F 86% 30.51 in 10.0 mi Calm Calm - N/A   Scattered Clouds
4:55 AM 16.7 °F - 12.9 °F 85% 30.50 in 10.0 mi Calm Calm - N/A   Clear
5:15 AM 18.0 °F 12.7 °F 13.1 °F 81% 30.50 in 10.0 mi NW 3.5 mph - N/A   Clear
5:35 AM 17.6 °F - 13.5 °F 84% 30.50 in 10.0 mi Calm Calm - N/A   Clear
5:53 AM 17.6 °F - 12.2 °F 79% 30.50 in 10.0 mi Calm Calm - N/A   Clear
6:53 AM 17.6 °F - 12.2 °F 79% 30.52 in 10.0 mi Calm Calm - N/A   Clear
7:53 AM 19.4 °F - 12.2 °F 74% 30.51 in 10.0 mi Calm Calm - N/A   Mostly Cloudy
8:53 AM 19.4 °F - 15.8 °F 86% 30.52 in 10.0 mi Calm Calm - N/A   Overcast
9:53 AM 21.2 °F - 14.0 °F 74% 30.50 in 10.0 mi Calm Calm - N/A   Overcast
10:53 AM 21.2 °F - 15.8 °F 80% 30.50 in 10.0 mi Calm Calm - N/A   Overcast
11:53 AM 23.0 °F - 15.8 °F 74% 30.47 in 6.0 mi Calm Calm - N/A   Overcast
12:53 PM 23.0 °F 15.8 °F 17.6 °F 80% 30.42 in 4.0 mi Variable 5.8 mph - N/A Snow Light Snow
1:53 PM 23.0 °F 17.0 °F 17.6 °F 80% 30.40 in 2.0 mi Variable 4.6 mph - N/A Snow Light Snow
2:21 PM 23.0 °F - 19.4 °F 86% 30.41 in 1.0 mi Calm Calm - N/A Snow Light Snow
2:53 PM 23.0 °F 17.0 °F 21.2 °F 93% 30.39 in 0.8 mi ESE 4.6 mph - N/A Snow Light Snow
2:58 PM 23.0 °F 17.0 °F 21.2 °F 93% 30.39 in 0.5 mi ESE 4.6 mph - N/A Snow Snow
3:15 PM 23.0 °F 17.0 °F 21.2 °F 93% 30.39 in 1.5 mi East 4.6 mph - N/A Snow Light Snow
3:58 PM 23.0 °F - 21.2 °F 93% 30.40 in 1.5 mi Calm Calm - N/A Snow Light Snow
4:26 PM 23.0 °F 18.4 °F 21.2 °F 93% 30.37 in 2.0 mi East 3.5 mph - N/A Snow Light Snow
4:44 PM 23.0 °F 17.0 °F 21.2 °F 93% 30.37 in 5.0 mi East 4.6 mph - N/A Snow Light Snow
4:53 PM 23.0 °F 17.0 °F 19.4 °F 86% 30.36 in 7.0 mi East 4.6 mph - N/A Snow Light Snow
5:53 PM 23.0 °F 15.8 °F 19.4 °F 86% 30.35 in 5.0 mi ESE 5.8 mph - N/A Snow Light Snow
6:53 PM 23.0 °F 17.0 °F 21.2 °F 93% 30.35 in 3.0 mi ESE 4.6 mph - N/A Snow Light Snow
7:53 PM 23.0 °F 17.0 °F 21.2 °F 93% 30.30 in 3.0 mi East 4.6 mph - N/A Snow Light Snow
8:53 PM 24.8 °F 19.1 °F 23.0 °F 93% 30.29 in 2.0 mi East 4.6 mph - N/A Snow Light Snow
9:55 PM 24.8 °F - 23.9 °F 96% 30.29 in 2.5 mi Calm Calm - N/A   Overcast
10:15 PM 25.3 °F 18.5 °F 24.3 °F 96% 30.29 in 3.0 mi SSE 5.8 mph - N/A   Overcast
10:35 PM 25.3 °F - 24.4 °F 96% 30.28 in 2.5 mi Calm Calm - N/A   Overcast
10:55 PM 25.7 °F - 24.8 °F 96% 30.27 in 2.5 mi Calm Calm - N/A   Overcast
11:15 PM 25.7 °F - 24.8 °F 96% 30.26 in 3.0 mi Calm Calm - N/A   Overcast
11:35 PM 25.7 °F - 24.8 °F 96% 30.25 in 3.0 mi Calm Calm - N/A   Overcast
11:55 PM 25.7 °F - 25.2 °F 98% 30.24 in 3.0 mi Calm Calm - N/A   Overcast